Darstellungsparameter: Aktuell verwendete Einstellungen:
Skalierung der Graphiken ... ?
xyx+y,   Skalierungsfaktor:      Skalierung: Modus: x, Faktor: 1
Darstellungszeitraum ... ?
Vom - - bis: - -   Zeitraum: 26.11.2010 - 27.11.2010
Min/Max/Avg-Anzeige ... ?
Zeige MMA aktuell
Zeige MMA Monat
Zeige MMA alles
Zeige --A aktuell
Zeige --A Monat
Zeige --A alles
Keine MMA-Anzeige
MMA:
Minimum Maximum Average (ber die Originaldaten)
MMA-Basis: 14.04.2020 - 16.05.2020
Quicknavigation für Darstellung... ?
Tage:      1T, 2T, 3T, 5T -1T -2T -3T -5T +1T +2T +3T +5T
Wochen: 1W, 2W, 3W -1W -2W -3W +1W +2W +3W
Monate: 1M, 3M, 6M -1M -3M -6M +1M +3M +6M
Jahre:    1J, 3J, 5J, 10J -1J -3J -5J -10J +1J +3J +5J +10J
Nutze für die Darstellung ... ?
Originaldaten oder Mittelwerte auf ...
Stundenbasis Tagesbasis Wochenbasis
Monatsbasis Jahresbasis      Datenbasis: Original-Daten
Darstellen als:
Statistik (Auto) Statistik J:M      Darstellung:
Zur Graphik,    zurück zur Übersicht aller Sensoren.
 
Tabellarische Datenbersicht: ?
 
Sensor: Nr:Datum:Temp:Abs-Feuchte:Windchill:Wind:
Aussen-T/F 1 26-11-2010 00:02:05 1.4 C 4.53 g/m*3 1.4 C 0 km/h
2 26-11-2010 00:14:05 1.6 C 4.6 g/m*3 1.6 C 0 km/h
3 26-11-2010 00:26:05 1.6 C 4.6 g/m*3 1.6 C 0 km/h
4 26-11-2010 00:38:05 1.4 C 4.48 g/m*3 1.4 C 0 km/h
5 26-11-2010 00:50:05 1 C 4.36 g/m*3 1 C 0 km/h
6 26-11-2010 01:02:05 0.9 C 4.43 g/m*3 0.9 C 0 km/h
7 26-11-2010 01:14:05 1.1 C 4.49 g/m*3 1.1 C 0 km/h
8 26-11-2010 01:26:05 1.1 C 4.55 g/m*3 1.1 C 0 km/h
9 26-11-2010 01:38:05 1.2 C 4.53 g/m*3 1.2 C 0 km/h
10 26-11-2010 01:50:05 1 C 4.46 g/m*3 1 C 0 km/h
11 26-11-2010 02:02:05 1 C 4.46 g/m*3 1 C 0 km/h
12 26-11-2010 02:14:05 1.1 C 4.49 g/m*3 1.1 C 0 km/h
13 26-11-2010 02:26:05 1 C 4.46 g/m*3 1 C 0 km/h
14 26-11-2010 02:38:05 1.1 C 4.49 g/m*3 1.1 C 0 km/h
15 26-11-2010 02:50:06 1.1 C 4.44 g/m*3 1.1 C 0 km/h
16 26-11-2010 03:02:06 1.1 C 4.49 g/m*3 1.1 C 0 km/h
17 26-11-2010 03:14:06 1.2 C 4.47 g/m*3 1.2 C 0 km/h
18 26-11-2010 03:26:06 0.6 C 4.29 g/m*3 0.6 C 0 km/h
19 26-11-2010 03:38:06 0.4 C 4.28 g/m*3 0.4 C 0 km/h
20 26-11-2010 03:50:06 0.4 C 4.33 g/m*3 0.4 C 0 km/h
21 26-11-2010 04:02:06 0.4 C 4.38 g/m*3 0.4 C 0 km/h
22 26-11-2010 04:14:06 0.3 C 4.35 g/m*3 0.3 C 0 km/h
23 26-11-2010 04:26:06 0.3 C 4.4 g/m*3 0.3 C 0 km/h
24 26-11-2010 04:38:06 0.3 C 4.4 g/m*3 0.3 C 0 km/h
25 26-11-2010 04:50:06 0.3 C 4.45 g/m*3 0.3 C 0 km/h
Sensor: Nr:Datum:Temp:Abs-Feuchte:Windchill:Wind:
Aussen-T/F 26 26-11-2010 05:02:06 0.3 C 4.45 g/m*3 0.3 C 0 km/h
27 26-11-2010 05:14:06 0.1 C 4.39 g/m*3 0.1 C 0 km/h
28 26-11-2010 05:26:06 0.2 C 4.47 g/m*3 0.2 C 0 km/h
29 26-11-2010 05:38:06 0.3 C 4.5 g/m*3 0.3 C 0 km/h
30 26-11-2010 05:50:06 0.4 C 4.53 g/m*3 0.4 C 0 km/h
31 26-11-2010 06:02:06 0.4 C 4.53 g/m*3 0.4 C 0 km/h
32 26-11-2010 06:14:06 0.4 C 4.53 g/m*3 0.4 C 0 km/h
33 26-11-2010 06:26:06 0.2 C 4.47 g/m*3 0.2 C 0 km/h
34 26-11-2010 06:38:06 0.1 C 4.44 g/m*3 0.1 C 0 km/h
35 26-11-2010 06:50:07 0 C 4.46 g/m*3 0 C 0 km/h
36 26-11-2010 07:02:03 0 C 4.46 g/m*3 0 C 0 km/h
37 26-11-2010 07:14:03 0 C 4.46 g/m*3 0 C 0 km/h
38 26-11-2010 07:26:03 0 C 4.46 g/m*3 0 C 0 km/h
39 26-11-2010 07:38:03 0 C 4.46 g/m*3 0 C 0 km/h
40 26-11-2010 07:50:01 0 C 4.46 g/m*3 0 C 0 km/h
41 26-11-2010 08:02:02 0 C 4.46 g/m*3 0 C 0 km/h
42 26-11-2010 08:14:02 0 C 4.46 g/m*3 0 C 0 km/h
43 26-11-2010 08:26:01 0 C 4.46 g/m*3 0 C 0 km/h
44 26-11-2010 08:38:01 0.1 C 4.54 g/m*3 0.1 C 0 km/h
45 26-11-2010 08:50:01 0.1 C 4.54 g/m*3 0.1 C 0 km/h
46 26-11-2010 09:02:01 0.1 C 4.54 g/m*3 0.1 C 0 km/h
47 26-11-2010 09:14:01 0.1 C 4.54 g/m*3 0.1 C 0 km/h
48 26-11-2010 09:26:01 0.1 C 4.54 g/m*3 0.1 C 0 km/h
49 26-11-2010 09:38:02 0.2 C 4.57 g/m*3 0.2 C 0 km/h
50 26-11-2010 09:50:02 0.2 C 4.57 g/m*3 0.2 C 0 km/h
Sensor: Nr:Datum:Temp:Abs-Feuchte:Windchill:Wind:
Aussen-T/F 51 26-11-2010 10:02:01 0.4 C 4.63 g/m*3 0.4 C 0 km/h
52 26-11-2010 10:14:01 0.4 C 4.63 g/m*3 0.4 C 0 km/h
53 26-11-2010 10:26:02 0.5 C 4.61 g/m*3 0.5 C 0 km/h
54 26-11-2010 10:38:02 0.7 C 4.68 g/m*3 0.7 C 0 km/h
55 26-11-2010 10:50:01 0.9 C 4.74 g/m*3 0.9 C 0 km/h
56 26-11-2010 11:02:02 1 C 4.67 g/m*3 1 C 0 km/h
57 26-11-2010 11:14:02 1 C 4.62 g/m*3 1 C 0 km/h
58 26-11-2010 11:26:01 1.2 C 4.63 g/m*3 1.2 C 0 km/h
59 26-11-2010 11:38:01 1.2 C 4.58 g/m*3 1.2 C 0 km/h
60 26-11-2010 11:50:01 1.2 C 4.53 g/m*3 1.2 C 0 km/h
61 26-11-2010 12:02:02 1.1 C 4.49 g/m*3 1.1 C 0 km/h
62 26-11-2010 12:14:02 1.1 C 4.49 g/m*3 1.1 C 0 km/h
63 26-11-2010 12:26:01 0.8 C 4.4 g/m*3 0.8 C 0 km/h
64 26-11-2010 12:38:02 0.7 C 4.37 g/m*3 0.7 C 0 km/h
65 26-11-2010 12:50:01 0.5 C 4.31 g/m*3 0.5 C 0 km/h
66 26-11-2010 13:02:02 0.4 C 4.28 g/m*3 0.4 C 0 km/h
67 26-11-2010 13:14:02 0.6 C 4.34 g/m*3 0.6 C 0 km/h
68 26-11-2010 13:26:02 1 C 4.46 g/m*3 1 C 0 km/h
69 26-11-2010 13:38:01 1.3 C 4.5 g/m*3 1.3 C 0 km/h
70 26-11-2010 13:50:01 1.2 C 4.26 g/m*3 1.2 C 0 km/h
71 26-11-2010 14:02:01 1.4 C 4.21 g/m*3 1.4 C 0 km/h
72 26-11-2010 14:14:01 1.5 C 4.19 g/m*3 1.5 C 0 km/h
73 26-11-2010 14:26:02 1.5 C 4.14 g/m*3 1.5 C 0 km/h
74 26-11-2010 14:38:01 1.8 C 4.17 g/m*3 1.8 C 0 km/h
75 26-11-2010 14:50:03 1.8 C 4.17 g/m*3 1.8 C 0 km/h
Sensor: Nr:Datum:Temp:Abs-Feuchte:Windchill:Wind:
Aussen-T/F 76 26-11-2010 15:02:02 1.4 C 3.79 g/m*3 1.4 C 0 km/h
77 26-11-2010 15:14:02 1 C 3.74 g/m*3 1 C 0 km/h
78 26-11-2010 15:26:02 0.9 C 3.81 g/m*3 0.9 C 0 km/h
79 26-11-2010 15:38:02 0.7 C 3.86 g/m*3 0.7 C 0 km/h
80 26-11-2010 15:50:02 0 C 3.78 g/m*3 0 C 0 km/h
81 26-11-2010 16:02:01 -0.8 C 3.71 g/m*3 -0.8 C 0 km/h
82 26-11-2010 16:14:01 -1.1 C 3.73 g/m*3 -1.1 C 0 km/h
83 26-11-2010 16:26:02 -1.6 C 3.68 g/m*3 -1.6 C 0 km/h
84 26-11-2010 16:38:02 -1.8 C 3.68 g/m*3 -1.8 C 0 km/h
85 26-11-2010 16:50:02 -2.1 C 3.64 g/m*3 -2.1 C 0 km/h
86 26-11-2010 17:02:03 -2.2 C 3.66 g/m*3 -2.2 C 0 km/h
87 26-11-2010 17:14:03 -2.4 C 3.61 g/m*3 -2.4 C 0 km/h
88 26-11-2010 17:26:02 -2.5 C 3.62 g/m*3 -2.5 C 0 km/h
89 26-11-2010 17:38:02 -2.5 C 3.62 g/m*3 -2.5 C 0 km/h
90 26-11-2010 17:50:01 -2.2 C 3.74 g/m*3 -2.2 C 0 km/h
91 26-11-2010 18:02:02 -1.5 C 3.93 g/m*3 -1.5 C 0 km/h
92 26-11-2010 18:14:02 -1.3 C 4.03 g/m*3 -1.3 C 0 km/h
93 26-11-2010 18:26:01 -1.3 C 4.03 g/m*3 -1.3 C 0 km/h
94 26-11-2010 18:38:01 -1.4 C 4 g/m*3 -1.4 C 0 km/h
95 26-11-2010 18:50:01 -1.4 C 4 g/m*3 -1.4 C 0 km/h
96 26-11-2010 19:02:02 -1.4 C 4 g/m*3 -1.4 C 0 km/h
97 26-11-2010 19:14:02 -1.4 C 4 g/m*3 -1.4 C 0 km/h
98 26-11-2010 19:26:01 -1.4 C 4 g/m*3 -1.4 C 0 km/h
99 26-11-2010 19:38:01 -1.6 C 3.94 g/m*3 -1.6 C 0 km/h
100 26-11-2010 19:50:02 -1.9 C 3.86 g/m*3 -1.9 C 0 km/h
Sensor: Nr:Datum:Temp:Abs-Feuchte:Windchill:Wind:
Aussen-T/F 101 26-11-2010 20:02:02 -1.8 C 3.89 g/m*3 -1.8 C 0 km/h
102 26-11-2010 20:14:02 -1.9 C 3.86 g/m*3 -1.9 C 0 km/h
103 26-11-2010 20:26:02 -1.7 C 3.92 g/m*3 -1.7 C 0 km/h
104 26-11-2010 20:38:02 -1.9 C 3.86 g/m*3 -1.9 C 0 km/h
105 26-11-2010 20:50:02 -2.5 C 3.7 g/m*3 -2.5 C 0 km/h
106 26-11-2010 21:02:01 -2.2 C 3.78 g/m*3 -2.2 C 0 km/h
107 26-11-2010 21:14:01 -2 C 3.84 g/m*3 -2 C 0 km/h
108 26-11-2010 21:26:02 -2.3 C 3.76 g/m*3 -2.3 C 0 km/h
109 26-11-2010 21:38:02 -2.6 C 3.68 g/m*3 -2.6 C 0 km/h
110 26-11-2010 21:50:02 -2.6 C 3.68 g/m*3 -2.6 C 0 km/h
111 26-11-2010 22:02:02 -3 C 3.57 g/m*3 -3 C 0 km/h
112 26-11-2010 22:14:02 -3.3 C 3.46 g/m*3 -3.3 C 0 km/h
113 26-11-2010 22:26:02 -3.1 C 3.55 g/m*3 -3.1 C 0 km/h
114 26-11-2010 22:38:02 -3.2 C 3.52 g/m*3 -3.2 C 0 km/h
115 26-11-2010 22:50:02 -3.6 C 3.39 g/m*3 -3.6 C 0 km/h
116 26-11-2010 23:03:02 -3.8 C 3.34 g/m*3 -3.8 C 0 km/h
117 26-11-2010 23:15:02 -3.8 C 3.34 g/m*3 -3.8 C 0 km/h
118 26-11-2010 23:27:02 -3.9 C 3.32 g/m*3 -3.9 C 0 km/h
119 26-11-2010 23:39:02 -3.7 C 3.36 g/m*3 -3.7 C 0 km/h
120 26-11-2010 23:51:02 -3.6 C 3.39 g/m*3 -3.6 C 0 km/h
121 27-11-2010 00:03:02 -4 C 3.29 g/m*3 -4 C 0 km/h
122 27-11-2010 00:15:02 -4.1 C 3.27 g/m*3 -4.1 C 0 km/h
123 27-11-2010 00:27:02 -4.2 C 3.25 g/m*3 -4.2 C 0 km/h
124 27-11-2010 00:39:02 -4.1 C 3.27 g/m*3 -4.1 C 0 km/h
125 27-11-2010 00:51:02 -4 C 3.29 g/m*3 -4 C 0 km/h
Sensor: Nr:Datum:Temp:Abs-Feuchte:Windchill:Wind:
Aussen-T/F 126 27-11-2010 01:03:02 -3.1 C 3.51 g/m*3 -3.1 C 0 km/h
127 27-11-2010 01:15:02 -2.7 C 3.61 g/m*3 -2.7 C 0 km/h
128 27-11-2010 01:27:02 -3.7 C 3.36 g/m*3 -3.7 C 0 km/h
129 27-11-2010 01:39:02 -4.3 C 3.19 g/m*3 -4.3 C 0 km/h
130 27-11-2010 01:51:03 -3.9 C 3.28 g/m*3 -3.9 C 0 km/h
131 27-11-2010 02:03:03 -3.9 C 3.28 g/m*3 -3.9 C 0 km/h
132 27-11-2010 02:15:03 -4.1 C 3.2 g/m*3 -4.1 C 0 km/h
133 27-11-2010 02:27:03 -4.5 C 3.11 g/m*3 -4.5 C 0 km/h
134 27-11-2010 02:39:03 -4 C 3.22 g/m*3 -4 C 0 km/h
135 27-11-2010 02:51:03 -3.2 C 3.45 g/m*3 -3.2 C 0 km/h
136 27-11-2010 03:03:03 -2.8 C 3.55 g/m*3 -2.8 C 0 km/h
137 27-11-2010 03:15:03 -2.7 C 3.61 g/m*3 -2.7 C 0 km/h
138 27-11-2010 03:27:03 -2.9 C 3.52 g/m*3 -2.9 C 0 km/h
139 27-11-2010 03:39:03 -3.5 C 3.37 g/m*3 -3.5 C 0 km/h
140 27-11-2010 03:51:03 -3.9 C 3.24 g/m*3 -3.9 C 0 km/h
141 27-11-2010 04:03:03 -4.1 C 3.2 g/m*3 -4.1 C 0 km/h
142 27-11-2010 04:15:03 -4 C 3.22 g/m*3 -4 C 0 km/h
143 27-11-2010 04:27:03 -4.1 C 3.2 g/m*3 -4.1 C 0 km/h
144 27-11-2010 04:39:03 -4 C 3.22 g/m*3 -4 C 0 km/h
145 27-11-2010 04:51:03 -4.4 C 3.13 g/m*3 -4.4 C 0 km/h
146 27-11-2010 05:03:03 -4.5 C 3.11 g/m*3 -4.5 C 0 km/h
147 27-11-2010 05:15:03 -4.7 C 3.03 g/m*3 -4.7 C 0 km/h
148 27-11-2010 05:27:03 -4.4 C 3.13 g/m*3 -4.4 C 0 km/h
149 27-11-2010 05:39:03 -4 C 3.22 g/m*3 -4 C 0 km/h
150 27-11-2010 05:51:03 -3.8 C 3.27 g/m*3 -3.8 C 0 km/h
Sensor: Nr:Datum:Temp:Abs-Feuchte:Windchill:Wind:
Aussen-T/F 151 27-11-2010 06:03:04 -3.7 C 3.29 g/m*3 -3.7 C 0 km/h
152 27-11-2010 06:15:04 -3.4 C 3.4 g/m*3 -3.4 C 0 km/h
153 27-11-2010 06:27:04 -3.4 C 3.4 g/m*3 -3.4 C 0 km/h
154 27-11-2010 06:39:04 -3.5 C 3.34 g/m*3 -3.5 C 0 km/h
155 27-11-2010 06:51:04 -3.6 C 3.31 g/m*3 -3.6 C 0 km/h
156 27-11-2010 07:03:04 -3.8 C 3.27 g/m*3 -3.8 C 0 km/h
157 27-11-2010 07:15:04 -3.4 C 3.36 g/m*3 -3.4 C 0 km/h
158 27-11-2010 07:27:04 -3.5 C 3.34 g/m*3 -3.5 C 0 km/h
159 27-11-2010 07:39:04 -3.6 C 3.31 g/m*3 -3.6 C 0 km/h
160 27-11-2010 07:51:04 -3.4 C 3.36 g/m*3 -3.4 C 0 km/h
161 27-11-2010 08:03:04 -3.5 C 3.34 g/m*3 -3.5 C 0 km/h
162 27-11-2010 08:15:04 -3.4 C 3.36 g/m*3 -3.4 C 0 km/h
163 27-11-2010 08:27:04 -2.9 C 3.52 g/m*3 -2.9 C 0 km/h
164 27-11-2010 08:39:04 -2.6 C 3.6 g/m*3 -2.6 C 0 km/h
165 27-11-2010 08:51:04 -2.6 C 3.6 g/m*3 -2.6 C 0 km/h
166 27-11-2010 09:03:04 -2.3 C 3.67 g/m*3 -2.3 C 0 km/h
167 27-11-2010 09:15:04 -2 C 3.75 g/m*3 -2 C 0 km/h
168 27-11-2010 09:27:04 -1.9 C 3.78 g/m*3 -1.9 C 0 km/h
169 27-11-2010 09:39:04 -1.7 C 3.83 g/m*3 -1.7 C 0 km/h
170 27-11-2010 09:51:04 -1.1 C 4 g/m*3 -1.1 C 0 km/h
171 27-11-2010 10:03:02 -0.8 C 4.13 g/m*3 -0.8 C 0 km/h
172 27-11-2010 10:15:02 -0.8 C 4.08 g/m*3 -0.8 C 0 km/h
173 27-11-2010 10:27:02 -1 C 4.02 g/m*3 -1 C 0 km/h
174 27-11-2010 10:39:01 -1 C 3.98 g/m*3 -1 C 0 km/h
175 27-11-2010 10:51:02 -0.6 C 4.09 g/m*3 -0.6 C 0 km/h
Sensor: Nr:Datum:Temp:Abs-Feuchte:Windchill:Wind:
Aussen-T/F 176 27-11-2010 11:03:01 -0.4 C 4.15 g/m*3 -0.4 C 0 km/h
177 27-11-2010 11:15:02 -0.4 C 4.15 g/m*3 -0.4 C 0 km/h
178 27-11-2010 11:27:02 -0.3 C 4.18 g/m*3 -0.3 C 0 km/h
179 27-11-2010 11:39:01 0 C 4.26 g/m*3 0 C 0 km/h
180 27-11-2010 11:51:02 0.1 C 4.2 g/m*3 0.1 C 0 km/h
181 27-11-2010 12:03:02 0.2 C 4.13 g/m*3 0.2 C 0 km/h
182 27-11-2010 12:15:02 0.3 C 4.06 g/m*3 0.3 C 0 km/h
183 27-11-2010 12:27:02 0.4 C 4.03 g/m*3 0.4 C 0 km/h
184 27-11-2010 12:39:03 0.6 C 3.99 g/m*3 0.6 C 0 km/h
185 27-11-2010 12:51:02 0.4 C 3.79 g/m*3 0.4 C 0 km/h
186 27-11-2010 13:03:02 0.7 C 3.86 g/m*3 0.7 C 0 km/h
187 27-11-2010 13:15:02 0.7 C 3.86 g/m*3 0.7 C 0 km/h
188 27-11-2010 13:27:02 0.7 C 3.92 g/m*3 0.7 C 0 km/h
189 27-11-2010 13:39:02 1 C 4 g/m*3 1 C 0 km/h
190 27-11-2010 13:51:02 1.2 C 3.89 g/m*3 1.2 C 0 km/h
191 27-11-2010 14:03:02 1.4 C 3.95 g/m*3 1.4 C 0 km/h
192 27-11-2010 14:15:02 1.5 C 3.87 g/m*3 1.5 C 0 km/h
193 27-11-2010 14:27:02 1.5 C 3.71 g/m*3 1.5 C 0 km/h
194 27-11-2010 14:39:02 1.7 C 3.7 g/m*3 1.7 C 0 km/h
195 27-11-2010 14:51:01 1.3 C 3.71 g/m*3 1.3 C 0 km/h
196 27-11-2010 15:03:02 1 C 3.74 g/m*3 1 C 0 km/h
197 27-11-2010 15:15:01 1 C 3.84 g/m*3 1 C 0 km/h
198 27-11-2010 15:27:01 0.8 C 3.79 g/m*3 0.8 C 0 km/h
199 27-11-2010 15:39:01 0.7 C 3.81 g/m*3 0.7 C 0 km/h
200 27-11-2010 15:51:01 0.3 C 3.81 g/m*3 0.3 C 0 km/h
Sensor: Nr:Datum:Temp:Abs-Feuchte:Windchill:Wind:
Aussen-T/F 201 27-11-2010 16:03:01 -0.3 C 3.56 g/m*3 -0.3 C 0 km/h
202 27-11-2010 16:15:02 -0.5 C 3.6 g/m*3 -0.5 C 0 km/h
203 27-11-2010 16:27:02 -0.7 C 3.6 g/m*3 -0.7 C 0 km/h
204 27-11-2010 16:39:01 -1 C 3.57 g/m*3 -1 C 0 km/h
205 27-11-2010 16:51:02 -1.1 C 3.59 g/m*3 -1.1 C 0 km/h
206 27-11-2010 17:03:01 -1 C 3.66 g/m*3 -1 C 0 km/h
207 27-11-2010 17:15:02 -0.7 C 3.69 g/m*3 -0.7 C 0 km/h
208 27-11-2010 17:27:02 -0.7 C 3.65 g/m*3 -0.7 C 0 km/h
209 27-11-2010 17:39:01 -0.8 C 3.67 g/m*3 -0.8 C 0 km/h
210 27-11-2010 17:51:02 -1.1 C 3.59 g/m*3 -1.1 C 0 km/h
211 27-11-2010 18:03:02 -1.6 C 3.51 g/m*3 -1.6 C 0 km/h
212 27-11-2010 18:15:02 -1.8 C 3.51 g/m*3 -1.8 C 0 km/h
213 27-11-2010 18:27:02 -1.8 C 3.55 g/m*3 -1.8 C 0 km/h
214 27-11-2010 18:39:02 -1.7 C 3.62 g/m*3 -1.7 C 0 km/h
215 27-11-2010 18:51:02 -1 C 3.8 g/m*3 -1 C 0 km/h
216 27-11-2010 19:03:01 -0.9 C 3.78 g/m*3 -0.9 C 0 km/h
217 27-11-2010 19:15:02 -1 C 3.71 g/m*3 -1 C 0 km/h
218 27-11-2010 19:27:02 -1.1 C 3.73 g/m*3 -1.1 C 0 km/h
219 27-11-2010 19:39:02 -0.9 C 3.78 g/m*3 -0.9 C 0 km/h
220 27-11-2010 19:51:02 -0.7 C 3.78 g/m*3 -0.7 C 0 km/h
221 27-11-2010 20:03:03 -0.7 C 3.78 g/m*3 -0.7 C 0 km/h
222 27-11-2010 20:15:02 -0.7 C 3.74 g/m*3 -0.7 C 0 km/h
223 27-11-2010 20:27:02 -1.2 C 3.52 g/m*3 -1.2 C 0 km/h
224 27-11-2010 20:39:02 -2.2 C 3.33 g/m*3 -2.2 C 0 km/h
225 27-11-2010 20:51:01 -2.7 C 3.25 g/m*3 -2.7 C 0 km/h
Sensor: Nr:Datum:Temp:Abs-Feuchte:Windchill:Wind:
Aussen-T/F 226 27-11-2010 21:03:02 -3 C 3.22 g/m*3 -3 C 0 km/h
227 27-11-2010 21:15:01 -3 C 3.3 g/m*3 -3 C 0 km/h
228 27-11-2010 21:27:01 -3 C 3.3 g/m*3 -3 C 0 km/h
229 27-11-2010 21:39:01 -3.2 C 3.25 g/m*3 -3.2 C 0 km/h
230 27-11-2010 21:51:01 -3.3 C 3.27 g/m*3 -3.3 C 0 km/h
231 27-11-2010 22:03:02 -3.8 C 3.15 g/m*3 -3.8 C 0 km/h
232 27-11-2010 22:15:01 -3.8 C 3.19 g/m*3 -3.8 C 0 km/h
233 27-11-2010 22:27:01 -3.2 C 3.37 g/m*3 -3.2 C 0 km/h
234 27-11-2010 22:40:03 -3.3 C 3.31 g/m*3 -3.3 C 0 km/h
235 27-11-2010 22:52:03 -2.7 C 3.49 g/m*3 -2.7 C 0 km/h
236 27-11-2010 23:04:03 -2.8 C 3.43 g/m*3 -2.8 C 0 km/h
237 27-11-2010 23:16:03 -2.8 C 3.43 g/m*3 -2.8 C 0 km/h
238 27-11-2010 23:28:03 -3 C 3.38 g/m*3 -3 C 0 km/h
239 27-11-2010 23:40:03 -3.6 C 3.2 g/m*3 -3.6 C 0 km/h
240 27-11-2010 23:52:03 -3.9 C 3.13 g/m*3 -3.9 C 0 km/h

Legende:
   Min
   Max


Maximal/Minimal-Werte vom 14.04.2020 - 16.05.2020

Sensor Min Max Avg
Temp
(Aussen-T/F)
-0.1 °C
15-04-2020  06:55:00
26.2 °C
17-04-2020  18:05:00
11.98 °C

Die Daten stammen von einer Davis Vantage Pro 2 Wetter-Station und werden unter Linux mit der Software wview2wettercgi und aufbereitet. Alle Angaben erfolgen ohne Gewähr für ihre Vollständigkeit oder Richtigkeit.
Kontakt: Rainer Krienke krienke@uni-koblenz.de . Meine Webseiten an der Uni Koblenz oder privat.
Version: $Revision: 0.78 $